19.05.2024;18:00;2
19.05.2024;17:00;2
19.05.2024;16:00;2
19.05.2024;15:00;2
19.05.2024;14:00;2
19.05.2024;13:00;17
19.05.2024;12:00;3
19.05.2024;11:00;2
19.05.2024;10:00;2
19.05.2024;09:00;2
19.05.2024;08:00;2
19.05.2024;07:00;4
19.05.2024;06:00;5
19.05.2024;05:00;5
19.05.2024;04:00;5
19.05.2024;03:00;8
19.05.2024;02:00;13
19.05.2024;01:00;11
18.05.2024;24:00;8
18.05.2024;23:00;8
18.05.2024;22:00;7
18.05.2024;21:00;11
18.05.2024;20:00;15
18.05.2024;19:00;11
18.05.2024;18:00;2
18.05.2024;17:00;2
18.05.2024;16:00;6
18.05.2024;15:00;6
18.05.2024;14:00;5
18.05.2024;13:00;2
18.05.2024;12:00;2
18.05.2024;11:00;2
18.05.2024;10:00;2
18.05.2024;09:00;2
18.05.2024;08:00;2
18.05.2024;07:00;2
18.05.2024;06:00;2
18.05.2024;05:00;2
18.05.2024;04:00;2
18.05.2024;03:00;2
18.05.2024;02:00;2
18.05.2024;01:00;3
17.05.2024;24:00;8
17.05.2024;23:00;8
17.05.2024;22:00;9
17.05.2024;21:00;5
17.05.2024;20:00;2
17.05.2024;19:00;2
17.05.2024;18:00;2
17.05.2024;17:00;3
17.05.2024;16:00;2
17.05.2024;15:00;2
17.05.2024;14:00;3
17.05.2024;13:00;18
17.05.2024;12:00;7
17.05.2024;11:00;4
17.05.2024;10:00;16
17.05.2024;09:00;9
17.05.2024;08:00;11
17.05.2024;07:00;11
17.05.2024;06:00;7
17.05.2024;05:00;8
17.05.2024;04:00;13
17.05.2024;03:00;11
17.05.2024;02:00;12
17.05.2024;01:00;17
16.05.2024;24:00;17
16.05.2024;23:00;15
16.05.2024;22:00;16
16.05.2024;21:00;16
16.05.2024;20:00;7
16.05.2024;19:00;3
16.05.2024;18:00;30
16.05.2024;17:00;42
16.05.2024;16:00;14
16.05.2024;15:00;12
16.05.2024;14:00;8
16.05.2024;13:00;6
16.05.2024;12:00;3
16.05.2024;11:00;2
16.05.2024;10:00;#
16.05.2024;09:00;5
16.05.2024;08:00;8
16.05.2024;07:00;11
16.05.2024;06:00;9
16.05.2024;05:00;8
16.05.2024;04:00;9
16.05.2024;03:00;11
16.05.2024;02:00;14
16.05.2024;01:00;13
15.05.2024;24:00;20
15.05.2024;23:00;17
15.05.2024;22:00;19
15.05.2024;21:00;23
15.05.2024;20:00;21
15.05.2024;19:00;24
15.05.2024;18:00;10
15.05.2024;17:00;8
15.05.2024;16:00;2
15.05.2024;15:00;11
15.05.2024;14:00;9
15.05.2024;13:00;9
15.05.2024;12:00;9
15.05.2024;11:00;2
15.05.2024;10:00;2
15.05.2024;09:00;2
15.05.2024;08:00;4
15.05.2024;07:00;13
15.05.2024;06:00;10
15.05.2024;05:00;9
15.05.2024;04:00;8
15.05.2024;03:00;11
15.05.2024;02:00;11
15.05.2024;01:00;13
14.05.2024;24:00;12
14.05.2024;23:00;13
14.05.2024;22:00;15
14.05.2024;21:00;16
14.05.2024;20:00;23
14.05.2024;19:00;18
14.05.2024;18:00;11
14.05.2024;17:00;11
14.05.2024;16:00;8
14.05.2024;15:00;9
14.05.2024;14:00;8
14.05.2024;13:00;10
14.05.2024;12:00;15
14.05.2024;11:00;4
14.05.2024;10:00;2
14.05.2024;09:00;3
14.05.2024;08:00;9
14.05.2024;07:00;17
14.05.2024;06:00;17
14.05.2024;05:00;11
14.05.2024;04:00;13
14.05.2024;03:00;12
14.05.2024;02:00;16
14.05.2024;01:00;19
